Regional Weather Roundup
Issued by NWS

Home | Current Version | Previous Version | Text Only | Print | Product List | Glossary Off
Versions: 1 2 3 4 5 6 7 8 9 10 11 12 13 14 15 16 17 18 19 20 21 22 23 24 25 26 27 28 29 30 31 32 33 34 35 36 37 38 39 40 41 42 43 44 45 46 47 48 49 50

000
ASUS43 KMPX 212201
RWRMN
WEATHER ROUNDUP FOR MINNESOTA
NATIONAL WEATHER SERVICE TWIN CITIES/CHANHASSEN MN
400 PM CST SUN DEC 21 2014


NOTE: "FAIR" INDICATES FEW OR NO CLOUDS BELOW 12,000 FEET WITH NO
SIGNIFICANT WEATHER AND/OR OBSTRUCTIONS TO VISIBILITY. N/A MEANS
CURRENT SKY AND/OR WEATHER CONDITIONS ARE NOT AVAILABLE.

MNZ060>063-068>070-212300-
   Twin Cities Metro

CITY           SKY/WX    TMP DP  RH WIND       PRES   REMARKS
TWIN CITIES    LGT RAIN  36  34  92 S9        29.75S FOG
ST PAUL        LGT RAIN  36  35  96 SE12      29.76F FOG
CRYSTAL        LGT RAIN  36  34  92 S10       29.72F FOG
BLAINE         LGT RAIN  37  37 100 SE12      29.73F
LAKEVILLE      CLOUDY    36  34  93 S10G16    29.74F FOG
EDEN PRAIRIE   CLOUDY    36  35  96 S9        29.73S FOG
SOUTH ST PAUL  CLOUDY    37  36  96 S8        29.75F FOG
LAKE ELMO      LGT RAIN  36  36 100 S12       29.76F
$$
MNZ001>005-007-008-013>017-022>024-027-028-212300-
   Northwest Minnesota

CITY           SKY/WX    TMP DP  RH WIND       PRES   REMARKS
BEMIDJI        CLOUDY    32  30  94 S10       29.64S FOG     WCI  23
HALLOCK        CLOUDY    30  30 100 CALM      29.60F FOG
ROSEAU         CLOUDY    32  28  86 S9        29.64R FOG     WCI  24
WARROAD        CLOUDY    30  28  93 S8        29.65R FOG     WCI  23
THIEF RVR FALL CLOUDY    30  30 100 SE10      29.62F WCI  21
CROOKSTON      CLOUDY    32  30  93 S10       29.63S FOG     WCI  24
FOSSTON        CLOUDY    30  28  93 SE8       29.62F FOG     WCI  23
DETROIT LAKES  CLOUDY    32  32 100 SE12      29.61F FOG     WCI  23
MOORHEAD       CLOUDY    34  34 100 SE14      29.61S FOG     WCI  24
PARK RAPIDS    CLOUDY    33  31  92 SE10      29.63F FOG     WCI  25
MAHNOMEN       CLOUDY    32  30  92 SE14      29.61F WCI  22
$$
MNZ006-009>011-018-025>026-212300-
   North Central Minnesota

CITY           SKY/WX    TMP DP  RH WIND       PRES   REMARKS
BAUDETTE       CLOUDY    31  28  89 S6        29.66R WCI  25
FLAG ISLAND    CLOUDY    30  28  93 S14       29.64S FOG     WCI  20
INTL FALLS     CLOUDY    31  29  92 S6        29.69S FOG     WCI  25
WASKISH        CLOUDY    32  30  93 S5        29.67R WCI  27
BIG FORK       MIX PCPN  34  30  86 S6        29.68S WCI  29
LONGVILLE      CLOUDY    32  32 100 SE7       29.66F FOG     WCI  26
GRAND RAPIDS   CLOUDY    32  30  93 SE10      29.68F WCI  24
CRANE LAKE     CLOUDY    30  28  93 SE3       29.74S FOG
ORR            CLOUDY    30  28  93 SE8       29.68F FOG     WCI  23
COOK           CLOUDY    30  30 100 SE9       29.71F FOG     WCI  22
WALKER         CLOUDY    32  31  96 S7        29.65S FOG     WCI  26
$$
MNZ012-019>021-037-212300-
   Northeast Minnesota

CITY           SKY/WX    TMP DP  RH WIND       PRES   REMARKS
DULUTH         FOG       32  30  92 SE12      29.73F VSB 3/4 WCI  23
ELY            MIX PCPN  30  28  93 S6        29.74S WCI  24
HIBBING        CLOUDY    32  29  88 S10       29.71F FOG     WCI  24
EVELETH        CLOUDY    32  32 100 SE8       29.73F FOG     WCI  25
DULUTH HARBOR  MIX PCPN  34  32  93 CALM      29.79S
SILVER BAY     FOG       34  32  93 E3        29.77F VSB 1/4
GRAND MARAIS     N/A     35  33  92 SE10      29.85S WCI  27
G MARAIS ARPRT MIX PCPN  28  27  93 SE9       29.79F VSB 1/4 WCI  20
$$
MNZ029>031-032-039>041-046>048-054>057-064-212300-
   West Central Minnesota

CITY           SKY/WX    TMP DP  RH WIND       PRES   REMARKS
FERGUS FALLS   CLOUDY    34  32  93 SE14      29.63F FOG     WCI  24
WHEATON        CLOUDY    32  30  93 SE13      29.60F WCI  22
MORRIS         CLOUDY    34  34 100 SE15      29.59F FOG     WCI  24
ALEXANDRIA     CLOUDY    33  32  96 S12       29.62F FOG     WCI  24
ELBOW LAKE     CLOUDY    32  32 100 SE13      29.60F FOG     WCI  22
WADENA         CLOUDY    32  30  93 SE8       29.63S FOG     WCI  25
GLENWOOD       FOG       34  34 100 SE12      29.63F VSB 1   WCI  25
APPLETON       CLOUDY    36  34  93 SE10G17   29.61S FOG
BENSON         CLOUDY    34  34 100 S10       29.62F FOG     WCI  26
ORTONVILLE     CLOUDY    34  30  86 SE12G18   29.58F WCI  25
MADISON        PTCLDY    37  36  93 SE13      29.60F FOG
WILLMAR        FOG       36  34  93 SE10      29.66F VSB 1/2
$$
MNZ033>034-036-042>043-049>051-058-059-212300-
   Central Minnesota

CITY           SKY/WX    TMP DP  RH WIND       PRES   REMARKS
ST CLOUD       CLOUDY    36  33  89 SE10      29.69F FOG
SAUK CENTRE    FOG       33  33  99 SE12      29.65F VSB 1/2 WCI  24
PAYNESVILLE    FOG       32  32 100 E10       29.66F VSB 1/2 WCI  23
AITKIN         CLOUDY    36  30  80 SE8       29.68S HAZE
PINE RIVER     CLOUDY    34  34 100 SE7       29.70S FOG     WCI  28
BRAINERD       CLOUDY    33  33 100 SE7       29.68S FOG     WCI  27
STAPLES        CLOUDY    32  32 100 SE7       29.65S FOG     WCI  26
LONG PRAIRIE   CLOUDY    32  32 100 SE12      29.65S FOG     WCI  23
LITTLE FALLS   CLOUDY    34  32  93 SE7       29.68S FOG     WCI  28
LITCHFIELD     FOG       36  36 100 SE7       29.68S VSB 3/4
BUFFALO        DRIZZLE   35  33  93 SE7       29.71F WCI  29
MAPLE LAKE     DRIZZLE   35  35  99 SE7       29.71S WCI  29
$$
MNZ037-044-045-052-053-212300-
   East Central Minnesota

CITY           SKY/WX    TMP DP  RH WIND       PRES   REMARKS
PRINCETON      CLOUDY    36  34  93 SE9       29.71F FOG
MORA           CLOUDY    32  30  93 SE7       29.74F WCI  26
CAMBRIDGE      DRIZZLE   36  28  75 SE5       29.71F
RUSH CITY      CLOUDY    33  32  95 SE7       29.74F WCI  27
MOOSE LAKE     CLOUDY    34  32  93 S7        29.71F WCI  28
HINCKLEY       CLOUDY    34  34 100 CALM      29.74F
CLOQUET        CLOUDY    32  30  93 SE5       29.73F FOG     WCI  27
MCGREGOR       CLOUDY    34  32  93 SE10      29.71F WCI  26
$$
MNZ071>073-080-081-089-090-097-098-212300-
   Southwest Minnesota

CITY           SKY/WX    TMP DP  RH WIND       PRES   REMARKS
MONTEVIDEO     CLOUDY    36  36 100 S13G18    29.63S
GRANITE FALLS  CLOUDY    35  33  94 SE12      29.65F FOG     WCI  27
CANBY          CLOUDY    36  33  91 SE7       29.60F
MARSHALL       CLOUDY    36  32  87 S14G21    29.61F
REDWOOD FALLS  FOG       36  35  96 SE12      29.66S VSB 3/4
OLIVIA         FOG       34  34 100 SE9       29.66S VSB 1/2 WCI  26
PIPESTONE      DRZL/FOG  36  36 100 S15       29.58F VSB 1/2
WINDOM         CLOUDY    37  37 100 S13G18    29.65F FOG
WORTHINGTON    CLOUDY    37 -11  12 S16G22    29.64F
JACKSON        CLOUDY    37  36  93 S18       29.68F FOG
TRACY          CLOUDY    38  37  96 S12G17    29.61F FOG
SLAYTON        FOG       36  36 100 S14       29.62F VSB 3/4
$$
MNZ065>067-074>077-082>085-091>093-212300-
   South Central Minnesota

CITY           SKY/WX    TMP DP  RH WIND       PRES   REMARKS
MANKATO        CLOUDY    37  34  87 S10       29.72S VSB 1
NEW ULM        FOG       36  36 100 S10       29.69S VSB 3/4
ST JAMES       CLOUDY    37  37 100 S12       29.70S FOG
FAIRMONT       CLOUDY    37  34  87 S17       29.70R
GLENCOE        FOG       37  37 100 SE9       29.69F VSB 1
FARIBAULT      CLOUDY    36  36 100 S8G17     29.75S FOG
OWATONNA       CLOUDY    37  36  93 S13       29.75S FOG
WASECA         CLOUDY    36  36 100 S15       29.74F FOG
ALBERT LEA     CLOUDY    37  37 100 S13G21    29.73S FOG
$$
MNZ078>079-086>088-094>096-212300-
   Southeast Minnesota

CITY           SKY/WX    TMP DP  RH WIND       PRES   REMARKS
ROCHESTER      CLOUDY    36  35  96 S23G31    29.76F FOG
RED WING       DRIZZLE   37  36  93 SE6       29.78S
STANTON        CLOUDY    37  35  90 S10G17    29.75S FOG
DODGE CENTER   CLOUDY    36  36 100 S17G24    29.75S FOG
WINONA         CLOUDY    37  34  87 S8G16     29.83F
AUSTIN         CLOUDY    37  36  93 S16G26    29.75S FOG
PRESTON        CLOUDY    35  34  96 S22G28    29.80F FOG     WCI  23
$$
ABBREVIATIONS USED IN REMARKS
   TC - TEMPERATURES IN CELSIUS
  WCI - WIND CHILL INDEX
   HX - HEAT INDEX
  VSB - VISIBILITY
$$


USA.gov is the U.S. government's official web portal to all federal, state and local government web resources and services.